Regional Weather Roundup
Issued by NWS Jackson, KY

Home | Current Version | Previous Version | Graphics & Text | Print | Product List | Glossary On
Versions: 1 2 3 4 5 6 7 8 9 10 11 12 13 14 15 16 17 18 19 20 21 22 23 24 25 26 27 28 29 30 31 32 33 34 35 36 37 38 39 40 41 42 43 44 45 46 47 48 49 50
000
ASUS43 KJKL 250211
RWRJKL

EAST KENTUCKY HOURLY WEATHER ROUNDUP
NATIONAL WEATHER SERVICE JACKSON KY
900 PM EST SAT JAN 24 2015

NOTE: "FAIR" INDICATES FEW OR NO CLOUDS BELOW 12,000 FEET WITH
NO SIGNIFICANT WEATHER AND/OR OBSTRUCTIONS TO VISIBILITY.

* THESE REPORTS ARE NOT UNDER NWS QUALITY CONTROL AND MAY NOT
  REPORT WEATHER SUCH AS PRECIPITATION AND FOG.

KYZ079-080-083-085-087-088-110-112-115-119-120-250300
...EASTERN KENTUCKY...

CITY           SKY/WX    TMP DP  RH WIND       PRES   REMARKS
JACKSON        CLEAR     33  30  88 VRB6      29.85R WCI  28
LONDON         CLEAR     35  28  75 CALM      29.87R
SOMERSET*      CLEAR     32  32 100 CALM      29.90R
MONTICELLO*      N/A     36  32  85 SW5       29.91R WCI  32
MIDDLESBORO*   CLEAR     32  28  87 CALM      29.88R
HARLAN APT*    PTCLDY    36  28  75 W3        29.87R
BLACK MTN*       N/A     27  27 100 NW3         N/A
PIKEVILLE APT* CLOUDY    34  30  86 W5        29.84  WCI  30
BIG SANDY*     CLOUDY    36  31  83 W5        29.85R WCI  32
MOREHEAD APT*  CLOUDY    36  30  80 SW7       29.86R WCI  30
$$

KYZ035-036-041-042-044-050-067-078-099-250300
...CENTRAL KENTUCKY...

CITY           SKY/WX    TMP DP  RH WIND       PRES   REMARKS
MT STERLING*   PTCLDY    34  32  93 W8        29.85S WCI  27
FLEMING/MASON* MOCLDY    31  29  92 SW9       29.84S FOG     WCI  23
DANVILLE*      CLEAR     34  30  86 SW6       29.87R WCI  29
RICHMOND*      CLEAR     34  30  86 S7        29.85S WCI  28
LEXINGTON      CLEAR     32  28  85 SW8       29.84S WCI  25
FRANKFORT      CLEAR     33  29  85 SW8       29.83R WCI  26
$$

KYZ091>093-OHZ055-061-077-WVZ005-015-034-035-042-250300
...SOUTHERN OHIO/WEST VIRGINIA...

CITY           SKY/WX    TMP DP  RH WIND       PRES   REMARKS
COVINGTON      MOCLDY    33  27  78 SW6       29.80R WCI  28
COLUMBUS       CLOUDY    35  28  75 W9        29.76R WCI  28
DAYTON         CLOUDY    34  29  82 SW9       29.77R WCI  27
WILMINGTON     MOCLDY    29  25  85 SW7       29.78R WCI  22
HUNTINGTON     PTCLDY    33  31  92 SW8       29.83R WCI  26
CHARLESTON     CLOUDY    35  29  78 W12G22    29.81R WCI  27
PINEVILLE*     CLOUDY    35  32  91 MISG      29.85R FOG
BECKLEY        FRZ RAIN  30  26  85 W16G22    29.75R WCI  19
BLUEFIELD      CLOUDY    31  25  78 W13G28    29.74R WCI  21
$$

VAZ002-007-008-TNZ017-027-036-066-071-250300
...SOUTHWEST VIRGINIA/EAST TENNESSEE...

CITY           SKY/WX    TMP DP  RH WIND       PRES   REMARKS
WISE*          CLOUDY    34  27  75 W9G22     29.81R WCI  26
JONESVILLE*    MOCLDY    32  27  80 CALM      29.90R
ABINGDON*      CLOUDY    33  30  86 W7        29.83R WCI  27
BRISTOL        CLOUDY    34  28  79 CALM      29.86R
KNOXVILLE      CLEAR     36  26  67 SW7       29.92R WCI  30
OAK RIDGE      CLEAR     35  28  75 CALM      29.93R
CROSSVILLE     CLEAR     36  28  73 SW6       29.89R WCI  31
NASHVILLE      CLEAR     41  32  70 SW7       29.91R
$$

...KEY TO REMARKS...
VSB - VISIBILITY IN MILES
WCI - WIND CHILL INDEX
HX  - HEAT INDEX

$$


USA.gov is the U.S. government's official web portal to all federal, state and local government web resources and services.